Regional Weather Roundup
Issued by NWS

Home | Current Version | Previous Version | Graphics & Text | Print | Product List | Glossary On
Versions: 1 2 3 4 5 6 7 8 9 10 11 12 13 14 15 16 17 18 19 20 21 22 23 24 25 26 27 28 29 30 31 32 33 34 35 36 37 38 39 40 41 42 43 44 45 46 47 48 49 50
000
ASUS43 KFSD 281202
RWRSD

WEATHER ROUNDUP FOR SOUTH DAKOTA
NATIONAL WEATHER SERVICE SIOUX FALLS SD
600 AM CST FRI NOV 28 2014

NOTE: "FAIR" INDICATES FEW OR NO CLOUDS BELOW 12,000 FEET WITH NO
SIGNIFICANT WEATHER AND/OR OBSTRUCTIONS TO VISIBILITY.


SDZ001>005-009-010-012>017-281300-
NORTHWEST AND NORTH CENTRAL SOUTH DAKOTA

CITY           SKY/WX    TMP DP  RH WIND       PRES   REMARKS
BUFFALO          N/A     39  28  64 SW7       29.61S
FAITH            N/A     38  26  62 W3        29.69F
MOBRIDGE       CLOUDY    17  12  80 E10       29.74F WCI   5
$$

SDZ012>016-024>037-041>051-057-063-072>074-281300-
SOUTHWEST AND SOUTH CENTRAL SOUTH DAKOTA

CITY           SKY/WX    TMP DP  RH WIND       PRES   REMARKS
RAPID CTY ARPT PTCLDY    39  27  62 SE5       29.69F
PIERRE         CLOUDY    19  16  88 E5        29.74F WCI  12
CUSTER         MOCLDY    43  23  45 VRB5      29.79F
ELLSWORTH AFB  PTCLDY    48  27  45 NW5       29.69S
PHILIP         PTCLDY    29  25  85 NW6       29.70F WCI  23
PINE RIDGE     PTCLDY    39  27  62 NW5       29.77F
WINNER         FAIR      44  29  55 S10       29.73F
$$

SDZ004>011-016>023-039-040-281300-
NORTHEAST SOUTH DAKOTA

CITY           SKY/WX    TMP DP  RH WIND       PRES   REMARKS
ABERDEEN       CLOUDY    13   8  81 NE6       29.85F WCI   4
WATERTOWN      PTCLDY    14  10  84 SE8       29.83F WCI   3
SISSETON         N/A      4   0  83 CALM      29.94S
$$

SDZ017-020-022-023-036>040-048>070-281300-
SOUTHEAST SOUTH DAKOTA

CITY           SKY/WX    TMP DP  RH WIND       PRES   REMARKS
SIOUX FALLS    CLOUDY    19  16  88 E5        29.85F WCI  12
HURON          CLOUDY    20  15  81 SE6       29.82F WCI  12
MITCHELL       CLOUDY    23  18  81 SE9       29.81F WCI  13
YANKTON        MOCLDY    21  18  86 E7        29.84S WCI  13
$$

ABBREVIATIONS USED IN REMARKS
   TC - TEMPERATURE IN CELSIUS
  WCI - WIND CHILL INDEX
   HX - HEAT INDEX
  VSB - VISIBILITY



USA.gov is the U.S. government's official web portal to all federal, state and local government web resources and services.